TimeAKDT,TemperatureF,Dew PointF,Humidity,Sea Level PressureIn,VisibilityMPH,Wind Direction,Wind SpeedMPH,Gust SpeedMPH,PrecipitationIn,Events,Conditions,WindDirDegrees,DateUTC
12:53 AM,1.9,-7.1,66,29.95,10.0,WNW,9.2,-,N/A,,Overcast,290,2013-03-19 08:53:00
1:53 AM,-0.0,-7.1,72,29.96,10.0,NW,6.9,-,N/A,,Mostly Cloudy,310,2013-03-19 09:53:00
2:53 AM,-7.1,-11.0,83,29.97,10.0,NW,3.5,-,N/A,,Clear,320,2013-03-19 10:53:00
3:53 AM,-0.0,-8.0,69,29.96,10.0,North,5.8,-,N/A,,Clear,350,2013-03-19 11:53:00
4:53 AM,5.0,-7.1,58,29.95,10.0,NNW,9.2,-,N/A,,Clear,340,2013-03-19 12:53:00
5:53 AM,6.1,-7.1,55,29.95,10.0,NNW,9.2,-,N/A,,Clear,330,2013-03-19 13:53:00
6:06 AM,5.0,-8.0,55,29.81,10.0,NNW,9.2,-,N/A,,Clear,330,2013-03-19 14:06:00
6:53 AM,5.0,-8.0,55,29.96,10.0,NNW,11.5,-,N/A,,Partly Cloudy,330,2013-03-19 14:53:00
7:53 AM,5.0,-9.0,52,29.97,10.0,NNW,11.5,-,N/A,,Partly Cloudy,330,2013-03-19 15:53:00
8:53 AM,7.0,-8.0,51,29.97,10.0,NNW,11.5,-,N/A,,Partly Cloudy,340,2013-03-19 16:53:00
9:53 AM,10.9,-8.0,42,29.97,10.0,North,13.8,24.2,N/A,,Partly Cloudy,350,2013-03-19 17:53:00
10:53 AM,12.9,-7.1,41,29.97,10.0,North,20.7,29.9,N/A,,Partly Cloudy,350,2013-03-19 18:53:00
11:53 AM,15.1,-7.1,37,29.97,10.0,North,15.0,-,N/A,,Partly Cloudy,350,2013-03-19 19:53:00
12:53 PM,16.0,-7.1,36,29.97,10.0,North,15.0,26.5,N/A,,Partly Cloudy,360,2013-03-19 20:53:00
1:53 PM,17.1,-7.1,34,29.96,10.0,North,23.0,28.8,N/A,,Partly Cloudy,360,2013-03-19 21:53:00
2:53 PM,18.0,-8.0,31,29.96,10.0,North,19.6,25.3,N/A,,Partly Cloudy,350,2013-03-19 22:53:00
3:53 PM,18.0,-7.1,33,29.94,10.0,North,16.1,21.9,N/A,,Partly Cloudy,360,2013-03-19 23:53:00
4:53 PM,18.0,-8.0,31,29.92,10.0,NNE,17.3,26.5,N/A,,Partly Cloudy,30,2013-03-20 00:53:00
5:53 PM,17.1,-8.0,33,29.91,10.0,NNE,15.0,-,N/A,,Partly Cloudy,20,2013-03-20 01:53:00
6:53 PM,14.0,-9.0,35,29.92,10.0,NNE,11.5,-,N/A,,Partly Cloudy,20,2013-03-20 02:53:00
7:53 PM,12.0,-9.9,37,29.93,10.0,North,11.5,-,N/A,,Partly Cloudy,10,2013-03-20 03:53:00
8:53 PM,9.0,-9.9,42,29.94,10.0,NNW,10.4,-,N/A,,Partly Cloudy,340,2013-03-20 04:53:00
9:25 PM,8.1,-9.9,44,29.78,10.0,NNW,9.2,-,N/A,,Partly Cloudy,340,2013-03-20 05:25:00
9:53 PM,7.0,-9.9,46,29.93,10.0,NNW,9.2,-,N/A,,Clear,330,2013-03-20 05:53:00
10:53 PM,3.0,-11.0,52,29.94,10.0,NW,10.4,-,N/A,,Clear,320,2013-03-20 06:53:00
11:53 PM,3.9,-11.0,50,29.93,10.0,NNW,10.4,-,N/A,,Clear,330,2013-03-20 07:53:00